Weather Roundup
Issued by NWS Chicago, IL

Home | Current Version | Previous Version | Graphics & Text | Print | Product List | Glossary On
Versions: 1 2 3 4 5 6 7 8 9 10 11 12 13 14 15 16 17 18 19 20 21 22 23 24 25 26 27 28 29 30 31 32 33 34 35 36 37 38 39 40 41 42 43 44 45 46 47 48 49 50
000
NZUS59 KLOT 232008
HRRLOT

CHICAGO AREA WEATHER ROUNDUP
NATIONAL WEATHER SERVICE CHICAGO/ROMEOVILLE IL
300 PM CDT SAT JUL 23 2016

NOTE: "FAIR" INDICATES FEW OR NO CLOUDS BELOW 12,000 FEET WITH NO
SIGNIFICANT WEATHER AND/OR OBSTRUCTIONS TO VISIBILITY.

* THESE STATIONS ARE NOT UNDER NWS QUALITY CONTROL. THEY ALSO MAY NOT
  REPORT WEATHER SUCH AS PRECIPITATION OR FOG.

ILZ005-006-012>014-019>023-232100-
NORTHEAST ILLINOIS

CITY           SKY/WX    TMP DP  RH WIND       PRES   REMARKS
OHARE          CLOUDY    90  73  57 SW9       29.95F HX  98
MIDWAY         CLOUDY    91  73  55 SW8       29.95F HX  99
AURORA         PTSUNNY   89  78  70 S8        29.96F HX 103
LANSING*       CLOUDY    90  74  59 SW9       29.97S HX  98
JOLIET*        CLOUDY    91  78  65 SW6       29.95F HX 105
WAUKEGAN       CLOUDY    84  77  79 SE7       29.96F HX  94
DUPAGE AIRPORT CLOUDY    90  75  61 S6        29.95F HX 100
WHEELING       CLOUDY    90  71  53 SW8       29.96F HX  96
MORRIS*        CLOUDY    88  77  69 SW6       29.95F HX 101
LEWIS AIRPORT* CLOUDY    89  75  64 S5        29.96F HX  98
NORTHERLY ISL    N/A     83  76  79 E3          N/A  HX  91
$$

WIZ051-052-058>065-066-070>072-232100-
SOUTHEAST WISCONSIN

CITY           SKY/WX    TMP DP  RH WIND       PRES   REMARKS
MILWAUKEE      CLOUDY    85  73  67 SE9       29.96F HX  91
KENOSHA*       CLOUDY    86  75  69 SE8       29.98F HX  95
RACINE*        CLOUDY    84  74  71 SE7       29.98F HX  91
BURLINGTON     CLOUDY    84  75  75 SW3       29.97F HX  92
WAUKESHA       TSTM      75  72  88 W9        30.00S FOG
$$

INZ001>003-010>013-019-020-232100-
NORTHWEST INDIANA

CITY           SKY/WX    TMP DP  RH WIND       PRES   REMARKS
GARY*          CLOUDY    88  84  89 E5        29.96F HX 112
MICHIGAN CITY* NOT AVBL
RENSSELAER*    NOT AVBL
VALPARAISO     CLOUDY    90  76  63 SW10      29.98F HX 101
$$

LMZ740>746-232100-
SOUTHERN LAKE MICHIGAN

STATION/POSITION TIME  SKY/WX   TEMP WIND        PRES    VSBY
                                AIR  DIR/SP/G
                 (UTC)          (F)  (DEG/KT/KT) (MB)    (MI)
HARRISON CRIB    1900            82  120/  8/  8   N/A
BURNHAM HARBOR   2000            82  140/  3/  5   N/A
CALUMET HARBOR   1900            81   50/  6/  7 1014.5F
BURNS HARBOR     1900            82   80/  6/  8 1015.9S
MICHIGAN CITY    1900            79   30/  5/  5   N/A
$$

ABBREVIATIONS USED IN REMARKS
   TC - TEMPERATURE IN CELSIUS
  WCI - WIND CHILL INDEX
   HX - HEAT INDEX
  VSB - VISIBILITY
$$




USA.gov is the U.S. government's official web portal to all federal, state and local government web resources and services.